This is the latest recevied weather packets stored in our database for station/object YD1CHS-13. If no packets are shown the sender has not sent any weather packets the latest 10 day(s).
| Time | Temp. | Humidity | Pressure | Rain* | Wind** | Luminosity | Snow |
|---|---|---|---|---|---|---|---|
| 1788557816 | 28.33° C | 100% | 1015.9 hPa | - | - | - | - |
| 1788554196 | 28.33° C | 100% | 1016 hPa | - | - | - | - |
| 1788553007 | 28.33° C | 100% | 1015.6 hPa | - | - | - | - |
| 1788550597 | 28.33° C | 100% | 1015.3 hPa | - | - | - | - |
| 1788549996 | 28.33° C | 100% | 1015.4 hPa | - | - | - | - |
| 1788549438 | 28.33° C | 100% | 1015.3 hPa | - | - | - | - |
| 1788548798 | 28.33° C | 100% | 1015.3 hPa | - | - | - | - |
| 1788546996 | 27.78° C | 100% | 1014.3 hPa | - | - | - | - |
| 1788546596 | 26.67° C | 100% | 1014.4 hPa | - | - | - | - |
| 1788545796 | 26.11° C | 100% | 1016.4 hPa | - | - | - | - |
| 1788545296 | 26.11° C | 100% | 1016.6 hPa | - | - | - | - |
| 1788544596 | 26.11° C | 100% | 1016.1 hPa | - | - | - | - |
| 1788543396 | 26.11° C | 100% | 1016.3 hPa | - | - | - | - |
| 1788540996 | 26.67° C | 100% | 1017.1 hPa | - | - | - | - |
| 1788539796 | 26.67° C | 100% | 1017.4 hPa | - | - | - | - |
| 1788538596 | 27.22° C | 100% | 1017.3 hPa | - | - | - | - |
| 1788537408 | 27.78° C | 100% | 1017.4 hPa | - | - | - | - |
| 1788536267 | 29.44° C | 100% | 1016.1 hPa | - | - | - | - |
| 1788535597 | 29.44° C | 100% | 1015.9 hPa | - | - | - | - |
| 1788534996 | 29.44° C | 100% | 1015.9 hPa | - | - | - | - |
| 1788533807 | 28.89° C | 100% | 1015.8 hPa | - | - | - | - |
| 1788532596 | 28.33° C | 100% | 1015 hPa | - | - | - | - |
| 1788531996 | 27.78° C | 100% | 1017 hPa | - | - | - | - |
| 1788531616 | 28.33° C | 100% | 1016.6 hPa | - | - | - | - |
| 1788530796 | 28.33° C | 100% | 1018.1 hPa | - | - | - | - |
* Rain since midnight (hover to see other rain measurements)
** Current wind speed in m/s (hover to see current wind gust speed)